Location: Del Amo
(33.8464°N, 118.2104°W)
Time: 06:45:58
(UTC+00:00)

ARIANE 6 FM1 Upper Stage - Pass Details

Date: 22 August 2024
Orbit: 566 x 594 km, 62.0° (Epoch: 19 September)

Event Time Altitude Azimuth Distance (km) Brightness Sun altitude
Exits shadow 11:25:26 34° 156° (SSE) 957 3.7 -22.6°
Maximum altitude 11:26:33 42° 118° (ESE) 835 3.7 -22.4°
Drops below altitude 10° 11:30:37 10° 47° (NE) 1,907 6.5 -21.7°
Sets 11:32:58 0° 40° (NE) 2,815 7.5 -21.3°
